Regional Weather Roundup
Issued by NWS Boston, MA

Home | Current Version | Previous Version | Text Only | Print | Product List | Glossary On
Versions: 1 2 3 4 5 6 7 8 9 10 11 12 13 14 15 16 17 18 19 20 21 22 23 24 25 26 27 28 29 30 31 32 33 34 35 36 37 38 39 40 41 42 43 44 45 46 47 48 49 50
000
ASUS41 KBOX 130004
RWRBOX

REGIONAL WEATHER ROUNDUP
NATIONAL WEATHER SERVICE BOSTON/NORTON MA
800 PM EDT WED AUG 12 2020

NOTE:  "FAIR" INDICATES FEW OR NO CLOUDS BELOW 12,000 FEET WITH NO
SIGNIFICANT WEATHER AND/OR OBSTRUCTIONS TO VISIBILITY.

MAZALL-130100-
EASTERN MASSACHUSETTS

CITY           SKY/WX    TMP DP  RH WIND       PRES   REMARKS
BOSTON         PTCLDY    79  68  69 NE6       30.00R
6HR MIN TEMP:  79; 6HR MAX TEMP:  93;

BEVERLY        CLEAR     80  70  71 SE3       30.00R
LAWRENCE       CLEAR     85  63  47 NW3       30.02R
BEDFORD        CLEAR     82  67  60 CALM      29.99S
BLUE HILL        N/A     83  63  50 W7        30.02R
NORWOOD        CLEAR     85  65  51 CALM      30.00R
MARSHFIELD     PTCLDY    81  77  89 CALM      30.00S
PLYMOUTH       PTCLDY    81  73  76 S5        30.02R
TAUNTON        PTCLDY    83  73  72 SW3       30.00S
NEW BEDFORD    PTCLDY    80  74  81 SW7       30.01S
$$

MAZALL-130100-
CAPE COD AND THE ISLANDS

CITY           SKY/WX    TMP DP  RH WIND       PRES   REMARKS
FALMOUTH       NOT AVBL
HYANNIS        PTCLDY    78  75  90 SW10      30.01S
CHATHAM        PTCLDY    78  74  87 VRB7      30.04S
PROVINCETOWN   CLEAR     77  73  87 S9        30.02R
NANTUCKET      CLOUDY    75  74  96 S8        30.04R FOG
MARTHAS VNYRD  MOCLDY    76  74  93 SW10      30.03S
$$

MAZALL-130100-
CENTRAL AND WESTERN MASSACHUSETTS

CITY           SKY/WX    TMP DP  RH WIND       PRES   REMARKS
WORCESTER      CLEAR     80  64  58 NW6       30.07R
6HR MIN TEMP:  80; 6HR MAX TEMP:  89;

FITCHBURG      PTCLDY    82  64  54 N5        30.03S
ORANGE         CLEAR     80  64  58 CALM      30.05S
SPRINGFIELD    PTCLDY    81  64  56 NW6       30.02R
WESTFIELD      CLEAR     84  64  50 NW7       30.03R
NORTH ADAMS    PTCLDY    70  63  78 CALM      30.07R
PITTSFIELD     CLEAR     73  58  59 W7        30.08S
$$

RIZALL-130100-
RHODE ISLAND

CITY           SKY/WX    TMP DP  RH WIND       PRES   REMARKS
PROVIDENCE     MOCLDY    83  74  74 SW9       30.01S
6HR MIN TEMP:  83; 6HR MAX TEMP:  89;

NEWPORT        MOCLDY    78  74  87 S7        30.02S FOG
BLOCK ISLAND   MOCLDY    76  73  91 SW12      30.04S
SMITHFIELD     PTCLDY    81  69  67 N3        30.03S
WESTERLY       MOCLDY    77  73  87 SW6       30.03F
$$

CTZALL-130100-
CONNECTICUT

CITY           SKY/WX    TMP DP  RH WIND       PRES   REMARKS
BRADLEY INTL   PTCLDY    83  65  54 NW7       30.02R
6HR MIN TEMP:  83; 6HR MAX TEMP:  93;

HARTFORD       PTCLDY    85  70  60 CALM      30.01R
BRIDGEPORT     MOCLDY    84  74  71 SW6       30.01S HX  91
DANBURY        MOCLDY    78  70  76 NE3       30.06S
GROTON         MOCLDY    76  73  91 S3        30.02R
NEW HAVEN      MOCLDY    83  77  82 SW7       30.02S HX  92
CHESTER        FAIR      81  77  89 CALM      30.04S
MERIDEN        MOCLDY    84  71  65 CALM      30.01R
WILLIMANTIC    PTCLDY    83  71  67 S6        30.02S
OXFORD         MOCLDY    74  72  93 VRB3      30.06F
$$

MEZ002-015-021-024-NHZ003-005-008-011-012-014-VTZ005-008-130100-
NORTHERN NEW ENGLAND

CITY           SKY/WX    TMP DP  RH WIND       PRES   REMARKS
PORTLAND ME    PTCLDY    79  66  64 S5        30.01R
6HR MIN TEMP:  79; 6HR MAX TEMP:  89; 6HR PCP: TRACE;

BANGOR ME      MOCLDY    75  65  70 SW3       29.99R
CONCORD NH     CLEAR     83  58  42 NW6       30.03R
MANCHESTER NH  PTCLDY    87  62  43 NW7       30.00R
NASHUA NH      CLEAR     84  65  52 W3        30.02R
PORTSMOUTH NH  PTCLDY    81  65  58 CALM      29.99R
JAFFREY NH     CLEAR     76  66  71 CALM      30.08R
KEENE NH       CLEAR     76  67  73 CALM      30.05R
BURLINGTON VT  PTCLDY    81  60  48 CALM      30.05R
MT. WASHINGTON NOT AVBL
$$

NYZ052-076-130100-
EASTERN NEW YORK

CITY           SKY/WX    TMP DP  RH WIND       PRES   REMARKS
ALBANY         MOCLDY    75  59  57 W3        30.05F
6HR MIN TEMP:  74; 6HR MAX TEMP:  83;

NEW YORK CITY  MOCLDY    85  71  63 SW3       30.01R HX  90
6HR MIN TEMP:  77; 6HR MAX TEMP:  92; 6HR PCP:  1.49;

$$

ANZALL-130100-
MARINE OBSERVATIONS

STATION/POSITION TIME  TEMP    WIND        PRES    VSBY  WAVE
                       AIR SEA DIR/SP/G                  HT/PER
                 (UTC) (F)     (DEG/KT/KT) (MB)    (MI)  (FT/S)
BOSTON BUOY      2350   74 71  160/  8/ 10 1014.3R         1
BUZZARDS BAY     2300          210/ 16/ 17 1017.4R
NANTUCKET SOUND  2340      77  220/ 12/ 14 1015.9R
MASS BAY-STELLWA 2304   72     200/  6/  8 1013.4R  1 7/8  1/ 2
ISLE OF SHOALS   2300   74     190/ 13/ 14 1015.0R
S OF BLOCK IS    2326      76                N/A           2/ 5
$$

......................KEY.........................
  SKY/WX - SKY CONDITION/PRESENT WEATHER
  TMP    - TEMPERATURE IN FAHRENHEIT
  DWPT   - DEWPOINT IN FAHRENHEIT
  RH     - RELATIVE HUMIDITY IN PERCENT
  WIND   - DIRECTION AND SPEED IN MPH
  PRES   - MEAN SEA LEVEL PRESSURE IN INCHES OF HG
  WCI    - WIND CHILL INDEX
  VSB    - VISIBILITY IN MILES
  HX     - HEAT INDEX
  TC     - TEMPERATURE IN CELSIUS
  VRB    - VARIABLE WIND DIRECTION
  N/A    - NOT AVAILABLE



USA.gov is the U.S. government's official web portal to all federal, state and local government web resources and services.